Weather History for PADU - December, 2012

Change the Weather History Date:

Tuesday, December 25, 2012

  Actual Average Record
Temperature  
Mean Temperature 37 °F -  
Max Temperature 39 °F 40 °F 50 °F (1992)
Min Temperature 35 °F 30 °F 21 °F (1991)
Degree Days  
Heating Degree Days 28    
Moisture  
Dew Point 31 °F    
Average Humidity 82    
Maximum Humidity 89    
Minimum Humidity 67    
Precipitation  
Precipitation 0.14 in - - ()
Sea Level Pressure  
Sea Level Pressure 29.06 in    
Wind  
Wind Speed 12 mph (East)    
Max Wind Speed 25 mph    
Max Gust Speed 37 mph    
Visibility 10 miles    
Events Rain , Snow    
Averages and records for this station are not official NWS values.
T = Trace of Precipitation, MM = Missing Value Source: NWS Daily Summary

Daily Weather History Graph

Daily Weather History Graph

Search for Another Location

Airport or City:

Trip Planner

Search our weather history database for the weather conditions in past years. The results will help you decide how hot, cold, wet, or windy it might be!

Date:

Astronomy

Dec. 25, 2012 Rise Set
Actual Time 10:24 AM AKST 5:49 PM AKST
Civil Twilight 9:40 AM AKST 6:32 PM AKST
Nautical Twilight 8:54 AM AKST 7:18 PM AKST
Astronomical Twilight 8:11 AM AKST 8:02 PM AKST
Moon 4:12 PM AKST (12/25) 8:01 AM AKST (12/25)
Length of Visible Light 8h 52m
Length of Day
7h 24m
Waxing Gibbous, 94% of the Moon is Illuminated
Dec 25
Waxing Gibbous
Dec 28
Full
Jan 4
Last Quarter
Jan 11
New
Jan 18
First Quarter

Hourly Weather History & Observations

Time (AKST) Temp. Windchill Dew Point Humidity Pressure Visibility Wind Dir Wind Speed Gust Speed Precip Events Conditions
12:56 AM 35.1 °F 24.1 °F 30.9 °F 85% 29.16 in 10.0 mi East 19.6 mph 25.3 mph 0.00 in Rain Light Rain
1:56 AM 36.0 °F 28.5 °F 30.9 °F 82% 29.17 in 10.0 mi ENE 10.4 mph - 0.00 in   Mostly Cloudy
2:56 AM 36.0 °F 28.5 °F 30.9 °F 82% 29.19 in 10.0 mi ENE 10.4 mph - 0.00 in   Overcast
3:56 AM 36.0 °F 27.5 °F 32.0 °F 86% 29.19 in 10.0 mi ENE 12.7 mph - 0.00 in   Overcast
4:56 AM 36.0 °F 28.0 °F 32.0 °F 86% 29.19 in 9.0 mi ENE 11.5 mph - 0.00 in Rain Light Rain
5:50 AM 35.6 °F 27.1 °F 32.0 °F 87% 29.16 in 10.0 mi ENE 12.7 mph - 0.00 in Rain Light Rain
5:56 AM 36.0 °F 28.0 °F 32.0 °F 86% 29.18 in 10.0 mi East 11.5 mph 19.6 mph 0.00 in Rain Light Rain
6:01 AM 35.6 °F 29.9 °F 32.0 °F 87% 29.16 in 10.0 mi ESE 6.9 mph - 0.00 in Rain Light Rain
6:16 AM 35.6 °F 29.2 °F 32.0 °F 87% 29.15 in 10.0 mi ENE 8.1 mph - 0.00 in Rain Light Rain
6:56 AM 35.1 °F - 32.0 °F 89% 29.17 in 10.0 mi Calm Calm - 0.00 in Rain Light Rain
7:56 AM 36.0 °F 29.6 °F 30.9 °F 82% 29.16 in 10.0 mi SE 8.1 mph - 0.00 in   Overcast
8:56 AM 36.0 °F 31.1 °F 30.9 °F 82% 29.15 in 10.0 mi South 5.8 mph - 0.00 in Rain Light Rain
9:56 AM 36.0 °F 31.1 °F 32.0 °F 86% 29.16 in 10.0 mi South 5.8 mph - 0.00 in   Overcast
9:57 AM 35.6 °F 30.7 °F 32.0 °F 87% 29.14 in 6.0 mi South 5.8 mph - 0.00 in Rain , Snow Light Rain
10:52 AM 35.6 °F 31.7 °F 32.0 °F 87% 29.13 in 10.0 mi SSE 4.6 mph - 0.01 in   Overcast
10:56 AM 36.0 °F 31.1 °F 32.0 °F 86% 29.15 in 10.0 mi SSE 5.8 mph - 0.01 in   Overcast
11:12 AM 35.6 °F 30.7 °F 32.0 °F 87% 29.12 in 10.0 mi South 5.8 mph - 0.00 in   Overcast
11:56 AM 36.0 °F 27.5 °F 32.0 °F 86% 29.13 in 10.0 mi SE 12.7 mph - 0.00 in   Overcast
12:13 PM 37.4 °F 30.8 °F 33.8 °F 87% 29.11 in 10.0 mi SSE 9.2 mph - N/A   Overcast
12:56 PM 39.0 °F 30.6 °F 30.9 °F 73% 29.12 in 10.0 mi SE 15.0 mph - N/A   Overcast
12:58 PM 39.2 °F 30.5 °F 30.2 °F 70% 29.11 in 10.0 mi ESE 16.1 mph - N/A   Overcast
1:56 PM 37.9 °F 31.5 °F 30.9 °F 76% 29.10 in 10.0 mi ESE 9.2 mph - N/A   Overcast
2:56 PM 39.0 °F 31.4 °F 30.0 °F 70% 29.08 in 10.0 mi SE 12.7 mph 21.9 mph N/A   Overcast
3:56 PM 39.0 °F 30.3 °F 28.9 °F 67% 29.05 in 10.0 mi East 16.1 mph 20.7 mph N/A   Overcast
4:56 PM 37.9 °F 27.3 °F 30.0 °F 73% 29.03 in 10.0 mi East 21.9 mph 29.9 mph N/A   Overcast
5:38 PM 37.4 °F 28.5 °F 30.2 °F 75% 29.00 in 10.0 mi East 15.0 mph 25.3 mph N/A   Overcast
5:56 PM 37.9 °F 28.2 °F 28.9 °F 70% 29.01 in 10.0 mi East 18.4 mph 36.8 mph N/A   Overcast
6:28 PM 37.4 °F 25.9 °F 30.2 °F 75% 28.98 in 10.0 mi East 25.3 mph 32.2 mph N/A   Overcast
6:46 PM 37.4 °F 26.4 °F 30.2 °F 75% 28.97 in 10.0 mi East 23.0 mph 29.9 mph N/A   Overcast
6:56 PM 37.9 °F 27.6 °F 30.9 °F 76% 28.98 in 10.0 mi East 20.7 mph 24.2 mph N/A   Overcast
7:15 PM 37.4 °F 27.2 °F 30.2 °F 75% 28.96 in 10.0 mi East 19.6 mph 29.9 mph 0.00 in   Overcast
7:56 PM 36.0 °F 31.1 °F 32.0 °F 86% 28.95 in 7.0 mi NNE 5.8 mph - 0.00 in Rain Light Rain
8:16 PM 35.6 °F 30.7 °F 32.0 °F 87% 28.92 in 8.0 mi Variable 5.8 mph - 0.00 in Rain Light Rain
8:56 PM 37.0 °F 28.5 °F 33.1 °F 86% 28.91 in 10.0 mi ENE 13.8 mph 19.6 mph 0.01 in Rain Light Rain
9:19 PM 37.4 °F 31.4 °F 32.0 °F 81% 28.88 in 10.0 mi NE 8.1 mph - 0.00 in Rain Light Rain
9:56 PM 37.0 °F 30.4 °F 32.0 °F 82% 28.88 in 10.0 mi NNE 9.2 mph 17.3 mph 0.00 in Rain Light Rain
10:56 PM 37.0 °F 28.1 °F 32.0 °F 82% 28.85 in 9.0 mi NNE 15.0 mph - 0.01 in Rain Light Rain
11:15 PM 35.6 °F 27.5 °F 32.0 °F 87% 28.82 in 5.0 mi North 11.5 mph 23.0 mph 0.03 in Rain Light Rain
11:56 PM 36.0 °F 28.0 °F 32.0 °F 86% 28.82 in 6.0 mi NNE 11.5 mph - 0.11 in   Overcast